Location: Axtheid
(49.6213°N, 11.8205°E)
Time: 08:57:46
(UTC+00:00)

Cosmos 1703 - Visible Passes

Search period start: 09 May 2021 00:00
Search period end: 19 May 2021 00:00
Orbit: 522 x 540 km, 82.5° (Epoch: 08 May)

Date Brightness Start Highest point End Pass type
(mag) Time Alt. Az. Time Alt. Az. Time Alt. Az.
16 May 4.5 02:39:43 10° SSE 02:43:22 42° E 02:47:04 10° NNE visible
17 May 4.6 02:29:33 10° SSE 02:33:10 40° E 02:36:50 10° NNE visible
18 May 4.7 02:19:23 10° SSE 02:22:58 37° E 02:26:35 10° NNE visible
